Location: Strawberry
(45.6646°N, 111.9596°W)
Time: 20:23:46
(UTC+00:00)

Explorer 11/Cluster Stage 4 - Pass Details

Date: 13 October 2022
Orbit: 466 x 1248 km, 28.8° (Epoch: 28 November)

Event Time Altitude Azimuth Distance (km) Brightness Sun altitude
Rises 16:51:52 0° 243° (WSW) 3,829 10.0 27.7°
Reaches altitude 10° 16:55:12 10° 228° (SW) 2,988 9.7 28.0°
Maximum altitude 17:00:36 22° 182° (S) 2,372 10.0 28.6°
Drops below altitude 10° 17:06:21 10° 137° (SE) 3,201 11.4 29.2°
Sets 17:10:04 0° 123° (ESE) 4,177 11.3 29.6°
